This demonstration page uses our WeatherBlox Daily Observations layout. Learn more.

Left ArrowRight Arrow

40.92945, -100.16068

Hourly Observations for September 2, 2016

Temp ( °F °C ) Dew Point ( °F °C ) Humidity (%) Winds ( mph kmh ) Pressure ( in mb ) Visibility ( mi km ) Precip ( " mm )
12:15 am 00:15 Clear 63 17.1 56 13.6 80 80 SSE 8 13 30.12 1020 10 16 N/A
12:35 am 00:35 Clear 63 17 56 13.5 80 80 SSE 8 13 30.15 1021 10 16 N/A
12:55 am 00:55 Clear 62 16.6 56 13.5 82 82 SE 7 11 30.15 1021 10 16 N/A
1:15 am 01:15 Clear 61 16.1 56 13.2 83 83 SE 7 11 30.15 1021 10 16 N/A
1:35 am 01:35 Clear 61 16 56 13.3 84 84 SE 6 9 30.12 1020 10 16 N/A
1:55 am 01:55 Clear 60 15.8 56 13.2 85 85 SE 6 9 30.15 1021 10 16 N/A
2:15 am 02:15 Clear 60 15.5 56 13.1 86 86 SE 6 9 30.15 1021 10 16 N/A
2:35 am 02:35 Clear 60 15.5 56 13.1 86 86 SE 8 13 30.12 1020 10 16 N/A
2:55 am 02:55 Clear 59 15.2 55 13 87 87 SE 7 11 30.12 1020 10 16 N/A
3:15 am 03:15 Clear 58 14.5 55 12.6 88 88 SE 5 7 30.18 1022 10 16 N/A
3:35 am 03:35 Clear 57 13.8 54 12.2 90 90 SE 3 6 30.18 1022 10 16 N/A
3:55 am 03:55 Clear 56 13.5 54 12.1 91 91 ESE 6 9 30.15 1021 10 16 N/A
4:15 am 04:15 Clear 57 13.8 55 12.5 92 92 SE 5 7 30.15 1021 10 16 N/A
4:35 am 04:35 Clear 56 13.6 54 12.2 91 91 SE 5 7 30.15 1021 10 16 N/A
4:55 am 04:55 Clear 56 13.5 54 12.2 92 92 SE 5 7 30.15 1021 10 16 N/A
5:15 am 05:15 Clear 56 13.3 54 12.1 93 93 SE 7 11 30.15 1021 10 16 N/A
5:35 am 05:35 Clear 56 13.4 54 12.1 92 92 SE 3 6 30.15 1021 10 16 N/A
5:55 am 05:55 Clear 55 12.9 53 11.6 92 92 ESE 5 7 30.15 1021 10 16 N/A
6:15 am 06:15 Clear 55 12.9 53 11.9 94 94 SE 6 9 30.15 1021 10 16 N/A
6:35 am 06:35 Clear 55 13 54 12 94 94 SE 7 11 30.15 1021 10 16 N/A
6:55 am 06:55 Clear 56 13.3 54 12.3 94 94 SE 7 11 30.15 1021 10 16 N/A
7:15 am 07:15 Sunny 56 13.5 55 12.5 94 94 SE 9 15 30.15 1021 10 16 N/A
7:35 am 07:35 Sunny 57 13.9 55 12.7 93 93 SSE 8 13 30.15 1021 10 16 N/A
7:55 am 07:55 Partly Cloudy 58 14.3 56 13.1 93 93 SSE 9 15 30.15 1021 10 16 N/A
8:15 am 08:15 Partly Cloudy 59 15.2 57 13.7 91 91 S 9 15 30.12 1020 10 16 N/A
8:35 am 08:35 Partly Cloudy 61 16 57 14.1 89 89 SSE 13 20 30.12 1020 10 16 N/A
8:55 am 08:55 Partly Cloudy 62 16.7 58 14.5 87 87 SSE 13 20 30.12 1020 10 16 N/A
9:15 am 09:15 Sunny 63 17.3 58 14.7 85 85 SSE 13 20 30.12 1020 10 16 N/A
9:35 am 09:35 Sunny 65 18.1 59 14.9 82 82 SSE 15 24 30.09 1019 10 16 N/A
9:55 am 09:55 Sunny 66 19 59 15 78 78 SSE 14 22 30.09 1019 10 16 N/A
10:15 am 10:15 Partly Cloudy 67 19.4 58 14.7 74 74 S 17 28 30.09 1019 10 16 N/A
10:35 am 10:35 Partly Cloudy 68 20 58 14.7 72 72 S 18 30 30.09 1019 10 16 N/A
10:55 am 10:55 Mostly Cloudy 70 21.2 59 14.9 67 67 S 16 26 30.09 1019 10 16 N/A
11:15 am 11:15 Cloudy 70 21.3 58 14.6 66 66 SSE 20 31 30.09 1019 10 16 N/A
11:35 am 11:35 Mostly Cloudy 71 21.7 58 14.5 64 64 S 20 31 30.06 1018 10 16 N/A
11:55 am 11:55 Mostly Cloudy 71 21.6 58 14.6 65 65 S 16 26 30.06 1018 10 16 N/A
12:15 pm 12:15 Partly Cloudy 71 21.8 57 14.1 62 62 S 18 30 30.03 1017 10 16 N/A
12:35 pm 12:35 Partly Cloudy 73 22.7 58 14.7 61 61 SSE 17 28 30.03 1017 10 16 N/A
12:55 pm 12:55 Partly Cloudy 73 22.6 58 14.5 60 60 SSE 16 26 30.03 1017 10 16 N/A
1:15 pm 13:15 Partly Cloudy 73 22.5 58 14.7 61 61 S 17 28 30.03 1017 10 16 N/A
1:35 pm 13:35 Partly Cloudy 75 23.9 59 14.8 57 57 S 18 30 30.00 1016 10 16 N/A
1:55 pm 13:55 Partly Cloudy 76 24.3 58 14.4 54 54 SSE 18 30 29.97 1015 10 16 N/A
2:15 pm 14:15 Partly Cloudy 75 23.9 57 14.1 54 54 S 17 28 30.00 1016 10 16 N/A
2:35 pm 14:35 Sunny 76 24.7 57 13.9 51 51 S 16 26 29.97 1015 10 16 N/A
2:55 pm 14:55 Partly Cloudy 77 25.1 56 13.2 48 48 S 15 24 29.94 1014 10 16 N/A
3:15 pm 15:15 Sunny 78 25.4 56 13.3 47 47 S 18 30 29.94 1014 10 16 N/A
3:35 pm 15:35 Sunny 78 25.6 55 12.9 45 45 S 17 28 29.94 1014 10 16 N/A
3:55 pm 15:55 Sunny 78 25.4 55 12.9 46 46 S 14 22 29.94 1014 10 16 N/A
4:15 pm 16:15 Sunny 79 25.9 55 13 45 45 SSE 18 30 29.91 1013 10 16 N/A
4:35 pm 16:35 Partly Cloudy 77 24.8 55 12.9 48 48 SSE 21 33 29.91 1013 10 16 N/A
4:55 pm 16:55 Mostly Cloudy 78 25.5 56 13.4 47 47 SSE 18 30 29.91 1013 10 16 N/A
5:15 pm 17:15 Partly Cloudy 76 24.7 56 13.2 49 49 SSE 18 30 29.91 1013 10 16 N/A
5:35 pm 17:35 Partly Cloudy 78 25.5 56 13.3 47 47 SSE 16 26 29.91 1013 10 16 N/A
5:55 pm 17:55 Mostly Cloudy 76 24.6 55 12.7 48 48 SSE 21 33 29.91 1013 10 16 N/A
6:15 pm 18:15 Partly Cloudy 74 23.6 56 13.1 52 52 SE 17 28 29.94 1014 10 16 N/A
6:35 pm 18:35 Sunny 74 23.3 56 13.1 53 53 SE 14 22 29.94 1014 10 16 N/A
6:55 pm 18:55 Sunny 73 22.9 56 13.4 55 55 SE 15 24 29.94 1014 10 16 N/A
7:15 pm 19:15 Sunny 73 22.5 56 13.2 56 56 SE 12 19 29.94 1014 10 16 N/A
7:35 pm 19:35 Sunny 72 22 56 13.5 59 59 SE 12 19 29.94 1014 10 16 N/A
7:55 pm 19:55 Sunny 71 21.5 56 13.5 60 60 SE 9 15 29.94 1014 10 16 N/A
8:15 pm 20:15 Clear 70 21 56 13.6 63 63 SE 10 17 29.94 1014 10 16 N/A
8:35 pm 20:35 Partly Cloudy 69 20.7 57 13.7 64 64 SE 12 19 29.94 1014 10 16 N/A
8:55 pm 20:55 Partly Cloudy 68 20.1 57 14 68 68 SE 12 19 29.97 1015 10 16 N/A
9:15 pm 21:15 Clear 67 19.5 58 14.2 72 72 SE 13 20 29.97 1015 10 16 N/A
9:35 pm 21:35 Clear 67 19.4 58 14.2 72 72 SE 14 22 29.97 1015 10 16 N/A
9:55 pm 21:55 Clear 67 19.5 57 14 71 71 SE 15 24 29.97 1015 10 16 N/A
10:15 pm 22:15 Clear 67 19.5 57 14.1 71 71 SE 9 15 29.97 1015 10 16 N/A
10:35 pm 22:35 Clear 67 19.3 57 14.1 72 72 SSE 13 20 29.97 1015 10 16 N/A
10:55 pm 22:55 Clear 66 19.1 57 14 72 72 SSE 14 22 29.97 1015 10 16 N/A
11:15 pm 23:15 Clear 66 19 57 13.9 72 72 SSE 16 26 29.97 1015 10 16 N/A
11:35 pm 23:35 Clear 66 19 57 13.7 72 72 SSE 18 30 29.97 1015 10 16 N/A
11:55 pm 23:55 Clear 66 18.9 56 13.5 71 71 SSE 18 30 29.94 1014 10 16 N/A

Powered by AerisWeather